Index of /20260426/WXO-DD/model_caps/3km/12/021
Name Last modified Size Description
Parent Directory -
20260426T12Z_MSC_CAPS_AbsoluteVorticity_IsbL-0250_RLatLon0.03_PT021H.grib2 2026-04-26 18:09 1.2M
20260426T12Z_MSC_CAPS_AbsoluteVorticity_IsbL-0500_RLatLon0.03_PT021H.grib2 2026-04-26 18:09 1.5M
20260426T12Z_MSC_CAPS_AbsoluteVorticity_IsbL-0700_RLatLon0.03_PT021H.grib2 2026-04-26 18:09 1.4M
20260426T12Z_MSC_CAPS_AbsoluteVorticity_IsbL-0850_RLatLon0.03_PT021H.grib2 2026-04-26 18:09 1.2M
20260426T12Z_MSC_CAPS_AbsoluteVorticity_IsbL-1000_RLatLon0.03_PT021H.grib2 2026-04-26 18:09 1.4M
20260426T12Z_MSC_CAPS_AirDensity_AGL-120m_RLatLon0.03_PT021H.grib2 2026-04-26 18:09 1.4M
20260426T12Z_MSC_CAPS_AirDensity_AGL-40m_RLatLon0.03_PT021H.grib2 2026-04-26 18:09 1.5M
20260426T12Z_MSC_CAPS_AirDensity_AGL-80m_RLatLon0.03_PT021H.grib2 2026-04-26 18:09 1.5M
20260426T12Z_MSC_CAPS_AirTemp_AGL-120m_RLatLon0.03_PT021H.grib2 2026-04-26 18:09 1.8M
20260426T12Z_MSC_CAPS_AirTemp_AGL-2m_RLatLon0.03_PT021H.grib2 2026-04-26 18:09 1.8M
20260426T12Z_MSC_CAPS_AirTemp_AGL-40m_RLatLon0.03_PT021H.grib2 2026-04-26 18:09 1.9M
20260426T12Z_MSC_CAPS_AirTemp_AGL-80m_RLatLon0.03_PT021H.grib2 2026-04-26 18:09 1.8M
20260426T12Z_MSC_CAPS_AirTemp_IsbL-0050_RLatLon0.03_PT021H.grib2 2026-04-26 18:09 694K
20260426T12Z_MSC_CAPS_AirTemp_IsbL-0100_RLatLon0.03_PT021H.grib2 2026-04-26 18:09 949K
20260426T12Z_MSC_CAPS_AirTemp_IsbL-0150_RLatLon0.03_PT021H.grib2 2026-04-26 18:09 734K
20260426T12Z_MSC_CAPS_AirTemp_IsbL-0175_RLatLon0.03_PT021H.grib2 2026-04-26 18:09 758K
20260426T12Z_MSC_CAPS_AirTemp_IsbL-0200_RLatLon0.03_PT021H.grib2 2026-04-26 18:09 778K
20260426T12Z_MSC_CAPS_AirTemp_IsbL-0225_RLatLon0.03_PT021H.grib2 2026-04-26 18:09 783K
20260426T12Z_MSC_CAPS_AirTemp_IsbL-0250_RLatLon0.03_PT021H.grib2 2026-04-26 18:09 778K
20260426T12Z_MSC_CAPS_AirTemp_IsbL-0275_RLatLon0.03_PT021H.grib2 2026-04-26 18:09 776K
20260426T12Z_MSC_CAPS_AirTemp_IsbL-0300_RLatLon0.03_PT021H.grib2 2026-04-26 18:09 768K
20260426T12Z_MSC_CAPS_AirTemp_IsbL-0350_RLatLon0.03_PT021H.grib2 2026-04-26 18:09 746K
20260426T12Z_MSC_CAPS_AirTemp_IsbL-0400_RLatLon0.03_PT021H.grib2 2026-04-26 18:09 747K
20260426T12Z_MSC_CAPS_AirTemp_IsbL-0450_RLatLon0.03_PT021H.grib2 2026-04-26 18:09 764K
20260426T12Z_MSC_CAPS_AirTemp_IsbL-0500_RLatLon0.03_PT021H.grib2 2026-04-26 18:09 782K
20260426T12Z_MSC_CAPS_AirTemp_IsbL-0550_RLatLon0.03_PT021H.grib2 2026-04-26 18:09 797K
20260426T12Z_MSC_CAPS_AirTemp_IsbL-0600_RLatLon0.03_PT021H.grib2 2026-04-26 18:09 814K
20260426T12Z_MSC_CAPS_AirTemp_IsbL-0650_RLatLon0.03_PT021H.grib2 2026-04-26 18:09 840K
20260426T12Z_MSC_CAPS_AirTemp_IsbL-0700_RLatLon0.03_PT021H.grib2 2026-04-26 18:09 1.0M
20260426T12Z_MSC_CAPS_AirTemp_IsbL-0750_RLatLon0.03_PT021H.grib2 2026-04-26 18:09 948K
20260426T12Z_MSC_CAPS_AirTemp_IsbL-0800_RLatLon0.03_PT021H.grib2 2026-04-26 18:09 1.0M
20260426T12Z_MSC_CAPS_AirTemp_IsbL-0850_RLatLon0.03_PT021H.grib2 2026-04-26 18:09 1.0M
20260426T12Z_MSC_CAPS_AirTemp_IsbL-0875_RLatLon0.03_PT021H.grib2 2026-04-26 18:09 1.0M
20260426T12Z_MSC_CAPS_AirTemp_IsbL-0900_RLatLon0.03_PT021H.grib2 2026-04-26 18:09 1.1M
20260426T12Z_MSC_CAPS_AirTemp_IsbL-0925_RLatLon0.03_PT021H.grib2 2026-04-26 18:09 1.1M
20260426T12Z_MSC_CAPS_AirTemp_IsbL-0950_RLatLon0.03_PT021H.grib2 2026-04-26 18:09 1.2M
20260426T12Z_MSC_CAPS_AirTemp_IsbL-0970_RLatLon0.03_PT021H.grib2 2026-04-26 18:09 1.2M
20260426T12Z_MSC_CAPS_AirTemp_IsbL-0985_RLatLon0.03_PT021H.grib2 2026-04-26 18:09 1.2M
20260426T12Z_MSC_CAPS_AirTemp_IsbL-1000_RLatLon0.03_PT021H.grib2 2026-04-26 18:09 1.1M
20260426T12Z_MSC_CAPS_AirTemp_IsbL-1015_RLatLon0.03_PT021H.grib2 2026-04-26 18:09 1.2M
20260426T12Z_MSC_CAPS_Albedo_Sfc_RLatLon0.03_PT021H.grib2 2026-04-26 18:09 2.7M
20260426T12Z_MSC_CAPS_CAPE_Sfc_RLatLon0.03_PT021H.grib2 2026-04-26 18:09 73K
20260426T12Z_MSC_CAPS_CloudWater_EAtm_RLatLon0.03_PT021H.grib2 2026-04-26 18:09 1.4M
20260426T12Z_MSC_CAPS_ConvectivePrecip-Accum_Sfc_RLatLon0.03_PT021H.grib2 2026-04-26 18:09 4.0M
20260426T12Z_MSC_CAPS_DewPointDepression_AGL-120m_RLatLon0.03_PT021H.grib2 2026-04-26 18:09 2.1M
20260426T12Z_MSC_CAPS_DewPointDepression_AGL-2m_RLatLon0.03_PT021H.grib2 2026-04-26 18:09 2.1M
20260426T12Z_MSC_CAPS_DewPointDepression_AGL-40m_RLatLon0.03_PT021H.grib2 2026-04-26 18:09 2.1M
20260426T12Z_MSC_CAPS_DewPointDepression_AGL-80m_RLatLon0.03_PT021H.grib2 2026-04-26 18:09 2.1M
20260426T12Z_MSC_CAPS_DewPointDepression_IsbL-0050_RLatLon0.03_PT021H.grib2 2026-04-26 18:09 3.9K
20260426T12Z_MSC_CAPS_DewPointDepression_IsbL-0100_RLatLon0.03_PT021H.grib2 2026-04-26 18:09 102K
20260426T12Z_MSC_CAPS_DewPointDepression_IsbL-0150_RLatLon0.03_PT021H.grib2 2026-04-26 18:09 130K
20260426T12Z_MSC_CAPS_DewPointDepression_IsbL-0175_RLatLon0.03_PT021H.grib2 2026-04-26 18:09 226K
20260426T12Z_MSC_CAPS_DewPointDepression_IsbL-0200_RLatLon0.03_PT021H.grib2 2026-04-26 18:09 409K
20260426T12Z_MSC_CAPS_DewPointDepression_IsbL-0225_RLatLon0.03_PT021H.grib2 2026-04-26 18:09 662K
20260426T12Z_MSC_CAPS_DewPointDepression_IsbL-0250_RLatLon0.03_PT021H.grib2 2026-04-26 18:09 858K
20260426T12Z_MSC_CAPS_DewPointDepression_IsbL-0275_RLatLon0.03_PT021H.grib2 2026-04-26 18:09 1.0M
20260426T12Z_MSC_CAPS_DewPointDepression_IsbL-0300_RLatLon0.03_PT021H.grib2 2026-04-26 18:09 1.0M
20260426T12Z_MSC_CAPS_DewPointDepression_IsbL-0350_RLatLon0.03_PT021H.grib2 2026-04-26 18:09 1.0M
20260426T12Z_MSC_CAPS_DewPointDepression_IsbL-0400_RLatLon0.03_PT021H.grib2 2026-04-26 18:09 1.1M
20260426T12Z_MSC_CAPS_DewPointDepression_IsbL-0450_RLatLon0.03_PT021H.grib2 2026-04-26 18:09 1.1M
20260426T12Z_MSC_CAPS_DewPointDepression_IsbL-0500_RLatLon0.03_PT021H.grib2 2026-04-26 18:09 1.2M
20260426T12Z_MSC_CAPS_DewPointDepression_IsbL-0550_RLatLon0.03_PT021H.grib2 2026-04-26 18:09 1.2M
20260426T12Z_MSC_CAPS_DewPointDepression_IsbL-0600_RLatLon0.03_PT021H.grib2 2026-04-26 18:09 1.2M
20260426T12Z_MSC_CAPS_DewPointDepression_IsbL-0650_RLatLon0.03_PT021H.grib2 2026-04-26 18:09 1.2M
20260426T12Z_MSC_CAPS_DewPointDepression_IsbL-0700_RLatLon0.03_PT021H.grib2 2026-04-26 18:09 1.3M
20260426T12Z_MSC_CAPS_DewPointDepression_IsbL-0750_RLatLon0.03_PT021H.grib2 2026-04-26 18:09 1.3M
20260426T12Z_MSC_CAPS_DewPointDepression_IsbL-0800_RLatLon0.03_PT021H.grib2 2026-04-26 18:09 1.3M
20260426T12Z_MSC_CAPS_DewPointDepression_IsbL-0850_RLatLon0.03_PT021H.grib2 2026-04-26 18:09 1.4M
20260426T12Z_MSC_CAPS_DewPointDepression_IsbL-0875_RLatLon0.03_PT021H.grib2 2026-04-26 18:09 1.4M
20260426T12Z_MSC_CAPS_DewPointDepression_IsbL-0900_RLatLon0.03_PT021H.grib2 2026-04-26 18:09 1.4M
20260426T12Z_MSC_CAPS_DewPointDepression_IsbL-0925_RLatLon0.03_PT021H.grib2 2026-04-26 18:09 1.4M
20260426T12Z_MSC_CAPS_DewPointDepression_IsbL-0950_RLatLon0.03_PT021H.grib2 2026-04-26 18:09 1.4M
20260426T12Z_MSC_CAPS_DewPointDepression_IsbL-0970_RLatLon0.03_PT021H.grib2 2026-04-26 18:09 1.4M
20260426T12Z_MSC_CAPS_DewPointDepression_IsbL-0985_RLatLon0.03_PT021H.grib2 2026-04-26 18:09 1.4M
20260426T12Z_MSC_CAPS_DewPointDepression_IsbL-1000_RLatLon0.03_PT021H.grib2 2026-04-26 18:09 1.4M
20260426T12Z_MSC_CAPS_DewPointDepression_IsbL-1015_RLatLon0.03_PT021H.grib2 2026-04-26 18:09 1.4M
20260426T12Z_MSC_CAPS_DewPoint_AGL-120m_RLatLon0.03_PT021H.grib2 2026-04-26 18:09 3.6M
20260426T12Z_MSC_CAPS_DewPoint_AGL-2m_RLatLon0.03_PT021H.grib2 2026-04-26 18:09 1.8M
20260426T12Z_MSC_CAPS_DewPoint_AGL-40m_RLatLon0.03_PT021H.grib2 2026-04-26 18:09 3.7M
20260426T12Z_MSC_CAPS_DewPoint_AGL-80m_RLatLon0.03_PT021H.grib2 2026-04-26 18:09 3.7M
20260426T12Z_MSC_CAPS_DownwardLongwaveRadiationFlux-Accum_Sfc_RLatLon0.03_PT021H.grib2 2026-04-26 18:09 2.2M
20260426T12Z_MSC_CAPS_DownwardShortwaveRadiationFlux-Accum_NTAtm_RLatLon0.03_PT021H.grib2 2026-04-26 18:09 502K
20260426T12Z_MSC_CAPS_DownwardShortwaveRadiationFlux-Accum_Sfc_RLatLon0.03_PT021H.grib2 2026-04-26 18:09 3.0M
20260426T12Z_MSC_CAPS_FreezingRain-Accum_Sfc_RLatLon0.03_PT021H.grib2 2026-04-26 18:09 466K
20260426T12Z_MSC_CAPS_GeopotentialHeight_IsbL-0050_RLatLon0.03_PT021H.grib2 2026-04-26 18:09 832K
20260426T12Z_MSC_CAPS_GeopotentialHeight_IsbL-0100_RLatLon0.03_PT021H.grib2 2026-04-26 18:09 750K
20260426T12Z_MSC_CAPS_GeopotentialHeight_IsbL-0150_RLatLon0.03_PT021H.grib2 2026-04-26 18:09 603K
20260426T12Z_MSC_CAPS_GeopotentialHeight_IsbL-0175_RLatLon0.03_PT021H.grib2 2026-04-26 18:09 718K
20260426T12Z_MSC_CAPS_GeopotentialHeight_IsbL-0200_RLatLon0.03_PT021H.grib2 2026-04-26 18:09 733K
20260426T12Z_MSC_CAPS_GeopotentialHeight_IsbL-0225_RLatLon0.03_PT021H.grib2 2026-04-26 18:09 740K
20260426T12Z_MSC_CAPS_GeopotentialHeight_IsbL-0250_RLatLon0.03_PT021H.grib2 2026-04-26 18:09 753K
20260426T12Z_MSC_CAPS_GeopotentialHeight_IsbL-0275_RLatLon0.03_PT021H.grib2 2026-04-26 18:09 767K
20260426T12Z_MSC_CAPS_GeopotentialHeight_IsbL-0300_RLatLon0.03_PT021H.grib2 2026-04-26 18:09 775K
20260426T12Z_MSC_CAPS_GeopotentialHeight_IsbL-0350_RLatLon0.03_PT021H.grib2 2026-04-26 18:09 775K
20260426T12Z_MSC_CAPS_GeopotentialHeight_IsbL-0400_RLatLon0.03_PT021H.grib2 2026-04-26 18:09 769K
20260426T12Z_MSC_CAPS_GeopotentialHeight_IsbL-0450_RLatLon0.03_PT021H.grib2 2026-04-26 18:09 765K
20260426T12Z_MSC_CAPS_GeopotentialHeight_IsbL-0500_RLatLon0.03_PT021H.grib2 2026-04-26 18:09 758K
20260426T12Z_MSC_CAPS_GeopotentialHeight_IsbL-0550_RLatLon0.03_PT021H.grib2 2026-04-26 18:09 749K
20260426T12Z_MSC_CAPS_GeopotentialHeight_IsbL-0600_RLatLon0.03_PT021H.grib2 2026-04-26 18:09 631K
20260426T12Z_MSC_CAPS_GeopotentialHeight_IsbL-0650_RLatLon0.03_PT021H.grib2 2026-04-26 18:09 627K
20260426T12Z_MSC_CAPS_GeopotentialHeight_IsbL-0700_RLatLon0.03_PT021H.grib2 2026-04-26 18:09 624K
20260426T12Z_MSC_CAPS_GeopotentialHeight_IsbL-0750_RLatLon0.03_PT021H.grib2 2026-04-26 18:09 625K
20260426T12Z_MSC_CAPS_GeopotentialHeight_IsbL-0800_RLatLon0.03_PT021H.grib2 2026-04-26 18:09 629K
20260426T12Z_MSC_CAPS_GeopotentialHeight_IsbL-0850_RLatLon0.03_PT021H.grib2 2026-04-26 18:09 823K
20260426T12Z_MSC_CAPS_GeopotentialHeight_IsbL-0875_RLatLon0.03_PT021H.grib2 2026-04-26 18:09 830K
20260426T12Z_MSC_CAPS_GeopotentialHeight_IsbL-0900_RLatLon0.03_PT021H.grib2 2026-04-26 18:09 837K
20260426T12Z_MSC_CAPS_GeopotentialHeight_IsbL-0925_RLatLon0.03_PT021H.grib2 2026-04-26 18:09 831K
20260426T12Z_MSC_CAPS_GeopotentialHeight_IsbL-0950_RLatLon0.03_PT021H.grib2 2026-04-26 18:09 850K
20260426T12Z_MSC_CAPS_GeopotentialHeight_IsbL-0970_RLatLon0.03_PT021H.grib2 2026-04-26 18:09 870K
20260426T12Z_MSC_CAPS_GeopotentialHeight_IsbL-0985_RLatLon0.03_PT021H.grib2 2026-04-26 18:09 878K
20260426T12Z_MSC_CAPS_GeopotentialHeight_IsbL-1000_RLatLon0.03_PT021H.grib2 2026-04-26 18:09 886K
20260426T12Z_MSC_CAPS_GeopotentialHeight_IsbL-1015_RLatLon0.03_PT021H.grib2 2026-04-26 18:09 695K
20260426T12Z_MSC_CAPS_GeopotentialHeight_Sfc_RLatLon0.03_PT021H.grib2 2026-04-26 18:09 1.0M
20260426T12Z_MSC_CAPS_IcePellets-Accum_Sfc_RLatLon0.03_PT021H.grib2 2026-04-26 18:09 21K
20260426T12Z_MSC_CAPS_LatentHeatNetFlux_Sfc_RLatLon0.03_PT021H.grib2 2026-04-26 18:09 1.7M
20260426T12Z_MSC_CAPS_LiftedIndex-MU-VT_IsbL-0500_RLatLon0.03_PT021H.grib2 2026-04-26 18:09 3.3M
20260426T12Z_MSC_CAPS_MixedLayerThickness_Sfc_RLatLon0.03_PT021H.nc 2026-04-26 18:12 17M
20260426T12Z_MSC_CAPS_NetLongwaveRadiationFlux-Accum_Sfc_RLatLon0.03_PT021H.grib2 2026-04-26 18:09 3.0M
20260426T12Z_MSC_CAPS_NetShortwaveRadiationFlux-Accum_Sfc_RLatLon0.03_PT021H.grib2 2026-04-26 18:09 3.1M
20260426T12Z_MSC_CAPS_PlanetaryBoundaryLayerHeight_Sfc_RLatLon0.03_PT021H.grib2 2026-04-26 18:09 2.8M
20260426T12Z_MSC_CAPS_Precip-Accum_Sfc_RLatLon0.03_PT021H.grib2 2026-04-26 18:09 4.2M
20260426T12Z_MSC_CAPS_PrecipRate_Sfc_RLatLon0.03_PT021H.grib2 2026-04-26 18:09 410K
20260426T12Z_MSC_CAPS_PrecipType-Instant_Sfc_RLatLon0.03_PT021H.grib2 2026-04-26 18:09 1.8M
20260426T12Z_MSC_CAPS_Pressure_MSL_RLatLon0.03_PT021H.grib2 2026-04-26 18:09 925K
20260426T12Z_MSC_CAPS_Pressure_Sfc_RLatLon0.03_PT021H.grib2 2026-04-26 18:09 1.2M
20260426T12Z_MSC_CAPS_RadiativeTemp_Sfc_RLatLon0.03_PT021H.grib2 2026-04-26 18:09 2.1M
20260426T12Z_MSC_CAPS_Rain-Accum_Sfc_RLatLon0.03_PT021H.grib2 2026-04-26 18:09 1.7M
20260426T12Z_MSC_CAPS_RelativeHumidity_AGL-120m_RLatLon0.03_PT021H.grib2 2026-04-26 18:09 2.8M
20260426T12Z_MSC_CAPS_RelativeHumidity_AGL-2m_RLatLon0.03_PT021H.grib2 2026-04-26 18:09 2.9M
20260426T12Z_MSC_CAPS_RelativeHumidity_AGL-40m_RLatLon0.03_PT021H.grib2 2026-04-26 18:09 2.8M
20260426T12Z_MSC_CAPS_RelativeHumidity_AGL-80m_RLatLon0.03_PT021H.grib2 2026-04-26 18:09 2.8M
20260426T12Z_MSC_CAPS_RelativeHumidity_IsbL-0050_RLatLon0.03_PT021H.grib2 2026-04-26 18:09 1.0M
20260426T12Z_MSC_CAPS_RelativeHumidity_IsbL-0100_RLatLon0.03_PT021H.grib2 2026-04-26 18:09 900K
20260426T12Z_MSC_CAPS_RelativeHumidity_IsbL-0150_RLatLon0.03_PT021H.grib2 2026-04-26 18:09 552K
20260426T12Z_MSC_CAPS_RelativeHumidity_IsbL-0175_RLatLon0.03_PT021H.grib2 2026-04-26 18:09 509K
20260426T12Z_MSC_CAPS_RelativeHumidity_IsbL-0200_RLatLon0.03_PT021H.grib2 2026-04-26 18:09 690K
20260426T12Z_MSC_CAPS_RelativeHumidity_IsbL-0225_RLatLon0.03_PT021H.grib2 2026-04-26 18:09 869K
20260426T12Z_MSC_CAPS_RelativeHumidity_IsbL-0250_RLatLon0.03_PT021H.grib2 2026-04-26 18:09 1.1M
20260426T12Z_MSC_CAPS_RelativeHumidity_IsbL-0275_RLatLon0.03_PT021H.grib2 2026-04-26 18:09 1.4M
20260426T12Z_MSC_CAPS_RelativeHumidity_IsbL-0300_RLatLon0.03_PT021H.grib2 2026-04-26 18:09 1.7M
20260426T12Z_MSC_CAPS_RelativeHumidity_IsbL-0350_RLatLon0.03_PT021H.grib2 2026-04-26 18:09 1.9M
20260426T12Z_MSC_CAPS_RelativeHumidity_IsbL-0400_RLatLon0.03_PT021H.grib2 2026-04-26 18:09 2.1M
20260426T12Z_MSC_CAPS_RelativeHumidity_IsbL-0450_RLatLon0.03_PT021H.grib2 2026-04-26 18:09 2.0M
20260426T12Z_MSC_CAPS_RelativeHumidity_IsbL-0500_RLatLon0.03_PT021H.grib2 2026-04-26 18:09 2.0M
20260426T12Z_MSC_CAPS_RelativeHumidity_IsbL-0550_RLatLon0.03_PT021H.grib2 2026-04-26 18:09 2.1M
20260426T12Z_MSC_CAPS_RelativeHumidity_IsbL-0600_RLatLon0.03_PT021H.grib2 2026-04-26 18:09 2.1M
20260426T12Z_MSC_CAPS_RelativeHumidity_IsbL-0650_RLatLon0.03_PT021H.grib2 2026-04-26 18:09 2.1M
20260426T12Z_MSC_CAPS_RelativeHumidity_IsbL-0700_RLatLon0.03_PT021H.grib2 2026-04-26 18:09 2.3M
20260426T12Z_MSC_CAPS_RelativeHumidity_IsbL-0750_RLatLon0.03_PT021H.grib2 2026-04-26 18:09 2.3M
20260426T12Z_MSC_CAPS_RelativeHumidity_IsbL-0800_RLatLon0.03_PT021H.grib2 2026-04-26 18:09 2.4M
20260426T12Z_MSC_CAPS_RelativeHumidity_IsbL-0850_RLatLon0.03_PT021H.grib2 2026-04-26 18:09 2.5M
20260426T12Z_MSC_CAPS_RelativeHumidity_IsbL-0875_RLatLon0.03_PT021H.grib2 2026-04-26 18:09 2.5M
20260426T12Z_MSC_CAPS_RelativeHumidity_IsbL-0900_RLatLon0.03_PT021H.grib2 2026-04-26 18:09 2.7M
20260426T12Z_MSC_CAPS_RelativeHumidity_IsbL-0925_RLatLon0.03_PT021H.grib2 2026-04-26 18:09 2.6M
20260426T12Z_MSC_CAPS_RelativeHumidity_IsbL-0950_RLatLon0.03_PT021H.grib2 2026-04-26 18:09 2.7M
20260426T12Z_MSC_CAPS_RelativeHumidity_IsbL-0970_RLatLon0.03_PT021H.grib2 2026-04-26 18:09 2.8M
20260426T12Z_MSC_CAPS_RelativeHumidity_IsbL-0985_RLatLon0.03_PT021H.grib2 2026-04-26 18:09 2.8M
20260426T12Z_MSC_CAPS_RelativeHumidity_IsbL-1000_RLatLon0.03_PT021H.grib2 2026-04-26 18:09 2.9M
20260426T12Z_MSC_CAPS_RelativeHumidity_IsbL-1015_RLatLon0.03_PT021H.grib2 2026-04-26 18:09 3.0M
20260426T12Z_MSC_CAPS_Runoff-Accum_Sfc_RLatLon0.03_PT021H.grib2 2026-04-26 18:09 255K
20260426T12Z_MSC_CAPS_SeaIceAreaFraction_Sfc_RLatLon0.03_PT021H.nc 2026-04-26 18:12 15M
20260426T12Z_MSC_CAPS_SeaIceCompressiveStrength_Sfc_RLatLon0.03_PT021H.nc 2026-04-26 18:12 15M
20260426T12Z_MSC_CAPS_SeaIceDivergence_Sfc_RLatLon0.03_PT021H.nc 2026-04-26 18:12 15M
20260426T12Z_MSC_CAPS_SeaIceInternalPressure_Sfc_RLatLon0.03_PT021H.nc 2026-04-26 18:12 15M
20260426T12Z_MSC_CAPS_SeaIceShear_Sfc_RLatLon0.03_PT021H.nc 2026-04-26 18:12 14M
20260426T12Z_MSC_CAPS_SeaIceSnowTemp_Sfc_RLatLon0.03_PT021H.nc 2026-04-26 18:12 15M
20260426T12Z_MSC_CAPS_SeaIceSnowVolume_Sfc_RLatLon0.03_PT021H.nc 2026-04-26 18:12 15M
20260426T12Z_MSC_CAPS_SeaIceVelocityX_Sfc_RLatLon0.03_PT021H.nc 2026-04-26 18:12 15M
20260426T12Z_MSC_CAPS_SeaIceVelocityY_Sfc_RLatLon0.03_PT021H.nc 2026-04-26 18:12 15M
20260426T12Z_MSC_CAPS_SeaIceVolume_Sfc_RLatLon0.03_PT021H.nc 2026-04-26 18:12 15M
20260426T12Z_MSC_CAPS_SeaSurfaceHeight_Sfc_RLatLon0.03_PT021H.nc 2026-04-26 18:12 16M
20260426T12Z_MSC_CAPS_SeaWaterSalinity_DBS-0.5m_RLatLon0.03_PT021H.nc 2026-04-26 18:12 16M
20260426T12Z_MSC_CAPS_SeaWaterSalinity_DBS-all_RLatLon0.03_PT021H.nc 2026-04-26 18:12 107M
20260426T12Z_MSC_CAPS_SeaWaterTemp_DBS-0.5m_RLatLon0.03_PT021H.nc 2026-04-26 18:12 14M
20260426T12Z_MSC_CAPS_SeaWaterTemp_DBS-all_RLatLon0.03_PT021H.nc 2026-04-26 18:12 87M
20260426T12Z_MSC_CAPS_SeaWaterVelocityX_DBS-0.5m_RLatLon0.03_PT021H.nc 2026-04-26 18:12 17M
20260426T12Z_MSC_CAPS_SeaWaterVelocityX_DBS-all_RLatLon0.03_PT021H.nc 2026-04-26 18:12 210M
20260426T12Z_MSC_CAPS_SeaWaterVelocityY_DBS-0.5m_RLatLon0.03_PT021H.nc 2026-04-26 18:12 17M
20260426T12Z_MSC_CAPS_SeaWaterVelocityY_DBS-all_RLatLon0.03_PT021H.nc 2026-04-26 18:12 214M
20260426T12Z_MSC_CAPS_SensibleHeatNetFlux_Sfc_RLatLon0.03_PT021H.grib2 2026-04-26 18:09 2.0M
20260426T12Z_MSC_CAPS_ShowalterIndex_IsbL-0500_RLatLon0.03_PT021H.grib2 2026-04-26 18:09 4.3M
20260426T12Z_MSC_CAPS_Snow-Accum_Sfc_RLatLon0.03_PT021H.grib2 2026-04-26 18:09 3.4M
20260426T12Z_MSC_CAPS_SnowDensity_Sfc_RLatLon0.03_PT021H.grib2 2026-04-26 18:09 1.3M
20260426T12Z_MSC_CAPS_SnowDepthWaterEquivalent_Sfc_RLatLon0.03_PT021H.grib2 2026-04-26 18:09 721K
20260426T12Z_MSC_CAPS_SnowDepth_Sfc_RLatLon0.03_PT021H.grib2 2026-04-26 18:09 1.3M
20260426T12Z_MSC_CAPS_SoilTemp_DBS-0to10cm_RLatLon0.03_PT021H.grib2 2026-04-26 18:09 1.6M
20260426T12Z_MSC_CAPS_SoilTemp_Sfc_RLatLon0.03_PT021H.grib2 2026-04-26 18:09 1.8M
20260426T12Z_MSC_CAPS_SoilVolumetricIceContent_Sfc_RLatLon0.03_PT021H.grib2 2026-04-26 18:09 1.4M
20260426T12Z_MSC_CAPS_SoilVolumetricWaterContent_DBS-0to10cm_RLatLon0.03_PT021H.grib2 2026-04-26 18:09 1.1M
20260426T12Z_MSC_CAPS_SoilVolumetricWaterContent_DBS-0to1cm_RLatLon0.03_PT021H.grib2 2026-04-26 18:09 1.7M
20260426T12Z_MSC_CAPS_SpecificHumidity_AGL-120m_RLatLon0.03_PT021H.grib2 2026-04-26 18:09 1.6M
20260426T12Z_MSC_CAPS_SpecificHumidity_AGL-2m_RLatLon0.03_PT021H.grib2 2026-04-26 18:09 2.1M
20260426T12Z_MSC_CAPS_SpecificHumidity_AGL-40m_RLatLon0.03_PT021H.grib2 2026-04-26 18:09 1.7M
20260426T12Z_MSC_CAPS_SpecificHumidity_AGL-80m_RLatLon0.03_PT021H.grib2 2026-04-26 18:09 1.7M
20260426T12Z_MSC_CAPS_SpecificHumidity_IsbL-0050_RLatLon0.03_PT021H.grib2 2026-04-26 18:09 911K
20260426T12Z_MSC_CAPS_SpecificHumidity_IsbL-0100_RLatLon0.03_PT021H.grib2 2026-04-26 18:09 1.0M
20260426T12Z_MSC_CAPS_SpecificHumidity_IsbL-0150_RLatLon0.03_PT021H.grib2 2026-04-26 18:09 879K
20260426T12Z_MSC_CAPS_SpecificHumidity_IsbL-0175_RLatLon0.03_PT021H.grib2 2026-04-26 18:09 1.0M
20260426T12Z_MSC_CAPS_SpecificHumidity_IsbL-0200_RLatLon0.03_PT021H.grib2 2026-04-26 18:09 1.0M
20260426T12Z_MSC_CAPS_SpecificHumidity_IsbL-0225_RLatLon0.03_PT021H.grib2 2026-04-26 18:09 836K
20260426T12Z_MSC_CAPS_SpecificHumidity_IsbL-0250_RLatLon0.03_PT021H.grib2 2026-04-26 18:09 1.1M
20260426T12Z_MSC_CAPS_SpecificHumidity_IsbL-0275_RLatLon0.03_PT021H.grib2 2026-04-26 18:09 1.1M
20260426T12Z_MSC_CAPS_SpecificHumidity_IsbL-0300_RLatLon0.03_PT021H.grib2 2026-04-26 18:09 1.0M
20260426T12Z_MSC_CAPS_SpecificHumidity_IsbL-0350_RLatLon0.03_PT021H.grib2 2026-04-26 18:09 950K
20260426T12Z_MSC_CAPS_SpecificHumidity_IsbL-0400_RLatLon0.03_PT021H.grib2 2026-04-26 18:09 954K
20260426T12Z_MSC_CAPS_SpecificHumidity_IsbL-0450_RLatLon0.03_PT021H.grib2 2026-04-26 18:09 1.1M
20260426T12Z_MSC_CAPS_SpecificHumidity_IsbL-0500_RLatLon0.03_PT021H.grib2 2026-04-26 18:09 1.3M
20260426T12Z_MSC_CAPS_SpecificHumidity_IsbL-0550_RLatLon0.03_PT021H.grib2 2026-04-26 18:09 1.2M
20260426T12Z_MSC_CAPS_SpecificHumidity_IsbL-0600_RLatLon0.03_PT021H.grib2 2026-04-26 18:09 1.3M
20260426T12Z_MSC_CAPS_SpecificHumidity_IsbL-0650_RLatLon0.03_PT021H.grib2 2026-04-26 18:09 1.5M
20260426T12Z_MSC_CAPS_SpecificHumidity_IsbL-0700_RLatLon0.03_PT021H.grib2 2026-04-26 18:09 1.6M
20260426T12Z_MSC_CAPS_SpecificHumidity_IsbL-0750_RLatLon0.03_PT021H.grib2 2026-04-26 18:09 1.3M
20260426T12Z_MSC_CAPS_SpecificHumidity_IsbL-0800_RLatLon0.03_PT021H.grib2 2026-04-26 18:09 1.5M
20260426T12Z_MSC_CAPS_SpecificHumidity_IsbL-0850_RLatLon0.03_PT021H.grib2 2026-04-26 18:09 1.6M
20260426T12Z_MSC_CAPS_SpecificHumidity_IsbL-0875_RLatLon0.03_PT021H.grib2 2026-04-26 18:09 1.7M
20260426T12Z_MSC_CAPS_SpecificHumidity_IsbL-0900_RLatLon0.03_PT021H.grib2 2026-04-26 18:09 1.8M
20260426T12Z_MSC_CAPS_SpecificHumidity_IsbL-0925_RLatLon0.03_PT021H.grib2 2026-04-26 18:09 1.8M
20260426T12Z_MSC_CAPS_SpecificHumidity_IsbL-0950_RLatLon0.03_PT021H.grib2 2026-04-26 18:09 1.8M
20260426T12Z_MSC_CAPS_SpecificHumidity_IsbL-0970_RLatLon0.03_PT021H.grib2 2026-04-26 18:09 1.9M
20260426T12Z_MSC_CAPS_SpecificHumidity_IsbL-0985_RLatLon0.03_PT021H.grib2 2026-04-26 18:09 1.9M
20260426T12Z_MSC_CAPS_SpecificHumidity_IsbL-1000_RLatLon0.03_PT021H.grib2 2026-04-26 18:09 2.0M
20260426T12Z_MSC_CAPS_SpecificHumidity_IsbL-1015_RLatLon0.03_PT021H.grib2 2026-04-26 18:09 2.0M
20260426T12Z_MSC_CAPS_SpecificHumidity_Sfc_RLatLon0.03_PT021H.grib2 2026-04-26 18:09 2.4M
20260426T12Z_MSC_CAPS_StormRelativeHelicity_Sfc_RLatLon0.03_PT021H.grib2 2026-04-26 18:09 3.3M
20260426T12Z_MSC_CAPS_Thickness_IsbL-1000to0500_RLatLon0.03_PT021H.grib2 2026-04-26 18:09 431K
20260426T12Z_MSC_CAPS_TotalCloudCover_Sfc_RLatLon0.03_PT021H.grib2 2026-04-26 18:09 3.7M
20260426T12Z_MSC_CAPS_TurboclineDepth_Sfc_RLatLon0.03_PT021H.nc 2026-04-26 18:12 16M
20260426T12Z_MSC_CAPS_UpwardLongwaveRadiationFlux_NTAtm_RLatLon0.03_PT021H.grib2 2026-04-26 18:09 2.9M
20260426T12Z_MSC_CAPS_UpwardShortwaveRadiationFlux_NTAtm_RLatLon0.03_PT021H.grib2 2026-04-26 18:09 1.8M
20260426T12Z_MSC_CAPS_VerticalVelocity_IsbL-0250_RLatLon0.03_PT021H.grib2 2026-04-26 18:09 856K
20260426T12Z_MSC_CAPS_VerticalVelocity_IsbL-0500_RLatLon0.03_PT021H.grib2 2026-04-26 18:09 1.0M
20260426T12Z_MSC_CAPS_VerticalVelocity_IsbL-0700_RLatLon0.03_PT021H.grib2 2026-04-26 18:09 1.2M
20260426T12Z_MSC_CAPS_VerticalVelocity_IsbL-0850_RLatLon0.03_PT021H.grib2 2026-04-26 18:09 1.1M
20260426T12Z_MSC_CAPS_VerticalVelocity_IsbL-1000_RLatLon0.03_PT021H.grib2 2026-04-26 18:09 1.4M
20260426T12Z_MSC_CAPS_WindDir_AGL-10m_RLatLon0.03_PT021H.grib2 2026-04-26 18:09 2.4M
20260426T12Z_MSC_CAPS_WindDir_AGL-120m_RLatLon0.03_PT021H.grib2 2026-04-26 18:09 1.2M
20260426T12Z_MSC_CAPS_WindDir_AGL-40m_RLatLon0.03_PT021H.grib2 2026-04-26 18:09 1.4M
20260426T12Z_MSC_CAPS_WindDir_AGL-80m_RLatLon0.03_PT021H.grib2 2026-04-26 18:09 1.3M
20260426T12Z_MSC_CAPS_WindDir_IsbL-0050_RLatLon0.03_PT021H.grib2 2026-04-26 18:09 1.0M
20260426T12Z_MSC_CAPS_WindDir_IsbL-0100_RLatLon0.03_PT021H.grib2 2026-04-26 18:09 1.0M
20260426T12Z_MSC_CAPS_WindDir_IsbL-0150_RLatLon0.03_PT021H.grib2 2026-04-26 18:09 1.0M
20260426T12Z_MSC_CAPS_WindDir_IsbL-0175_RLatLon0.03_PT021H.grib2 2026-04-26 18:09 1.0M
20260426T12Z_MSC_CAPS_WindDir_IsbL-0200_RLatLon0.03_PT021H.grib2 2026-04-26 18:09 1.2M
20260426T12Z_MSC_CAPS_WindDir_IsbL-0225_RLatLon0.03_PT021H.grib2 2026-04-26 18:09 1.1M
20260426T12Z_MSC_CAPS_WindDir_IsbL-0250_RLatLon0.03_PT021H.grib2 2026-04-26 18:09 1.1M
20260426T12Z_MSC_CAPS_WindDir_IsbL-0275_RLatLon0.03_PT021H.grib2 2026-04-26 18:09 1.1M
20260426T12Z_MSC_CAPS_WindDir_IsbL-0300_RLatLon0.03_PT021H.grib2 2026-04-26 18:09 1.1M
20260426T12Z_MSC_CAPS_WindDir_IsbL-0350_RLatLon0.03_PT021H.grib2 2026-04-26 18:09 1.1M
20260426T12Z_MSC_CAPS_WindDir_IsbL-0400_RLatLon0.03_PT021H.grib2 2026-04-26 18:09 1.2M
20260426T12Z_MSC_CAPS_WindDir_IsbL-0450_RLatLon0.03_PT021H.grib2 2026-04-26 18:09 1.2M
20260426T12Z_MSC_CAPS_WindDir_IsbL-0500_RLatLon0.03_PT021H.grib2 2026-04-26 18:09 1.2M
20260426T12Z_MSC_CAPS_WindDir_IsbL-0550_RLatLon0.03_PT021H.grib2 2026-04-26 18:09 1.3M
20260426T12Z_MSC_CAPS_WindDir_IsbL-0600_RLatLon0.03_PT021H.grib2 2026-04-26 18:09 1.3M
20260426T12Z_MSC_CAPS_WindDir_IsbL-0650_RLatLon0.03_PT021H.grib2 2026-04-26 18:09 1.4M
20260426T12Z_MSC_CAPS_WindDir_IsbL-0700_RLatLon0.03_PT021H.grib2 2026-04-26 18:09 1.5M
20260426T12Z_MSC_CAPS_WindDir_IsbL-0750_RLatLon0.03_PT021H.grib2 2026-04-26 18:09 1.6M
20260426T12Z_MSC_CAPS_WindDir_IsbL-0800_RLatLon0.03_PT021H.grib2 2026-04-26 18:09 1.6M
20260426T12Z_MSC_CAPS_WindDir_IsbL-0850_RLatLon0.03_PT021H.grib2 2026-04-26 18:09 1.8M
20260426T12Z_MSC_CAPS_WindDir_IsbL-0875_RLatLon0.03_PT021H.grib2 2026-04-26 18:09 1.8M
20260426T12Z_MSC_CAPS_WindDir_IsbL-0900_RLatLon0.03_PT021H.grib2 2026-04-26 18:09 1.9M
20260426T12Z_MSC_CAPS_WindDir_IsbL-0925_RLatLon0.03_PT021H.grib2 2026-04-26 18:09 2.0M
20260426T12Z_MSC_CAPS_WindDir_IsbL-0950_RLatLon0.03_PT021H.grib2 2026-04-26 18:09 2.0M
20260426T12Z_MSC_CAPS_WindDir_IsbL-0970_RLatLon0.03_PT021H.grib2 2026-04-26 18:09 2.1M
20260426T12Z_MSC_CAPS_WindDir_IsbL-0985_RLatLon0.03_PT021H.grib2 2026-04-26 18:09 2.2M
20260426T12Z_MSC_CAPS_WindDir_IsbL-1000_RLatLon0.03_PT021H.grib2 2026-04-26 18:09 2.3M
20260426T12Z_MSC_CAPS_WindDir_IsbL-1015_RLatLon0.03_PT021H.grib2 2026-04-26 18:09 2.4M
20260426T12Z_MSC_CAPS_WindGust-Max_AGL-10m_RLatLon0.03_PT021H.grib2 2026-04-26 18:09 2.5M
20260426T12Z_MSC_CAPS_WindGust-Min_AGL-10m_RLatLon0.03_PT021H.grib2 2026-04-26 18:09 2.4M
20260426T12Z_MSC_CAPS_WindGust_AGL-10m_RLatLon0.03_PT021H.grib2 2026-04-26 18:09 2.5M
20260426T12Z_MSC_CAPS_WindSpeed_AGL-10m_RLatLon0.03_PT021H.grib2 2026-04-26 18:09 2.1M
20260426T12Z_MSC_CAPS_WindSpeed_AGL-120m_RLatLon0.03_PT021H.grib2 2026-04-26 18:09 1.2M
20260426T12Z_MSC_CAPS_WindSpeed_AGL-40m_RLatLon0.03_PT021H.grib2 2026-04-26 18:09 1.2M
20260426T12Z_MSC_CAPS_WindSpeed_AGL-80m_RLatLon0.03_PT021H.grib2 2026-04-26 18:09 1.2M
20260426T12Z_MSC_CAPS_WindSpeed_IsbL-0050_RLatLon0.03_PT021H.grib2 2026-04-26 18:09 1.2M
20260426T12Z_MSC_CAPS_WindSpeed_IsbL-0100_RLatLon0.03_PT021H.grib2 2026-04-26 18:09 877K
20260426T12Z_MSC_CAPS_WindSpeed_IsbL-0150_RLatLon0.03_PT021H.grib2 2026-04-26 18:09 1.0M
20260426T12Z_MSC_CAPS_WindSpeed_IsbL-0175_RLatLon0.03_PT021H.grib2 2026-04-26 18:09 1.1M
20260426T12Z_MSC_CAPS_WindSpeed_IsbL-0200_RLatLon0.03_PT021H.grib2 2026-04-26 18:09 1.2M
20260426T12Z_MSC_CAPS_WindSpeed_IsbL-0225_RLatLon0.03_PT021H.grib2 2026-04-26 18:09 1.2M
20260426T12Z_MSC_CAPS_WindSpeed_IsbL-0250_RLatLon0.03_PT021H.grib2 2026-04-26 18:09 960K
20260426T12Z_MSC_CAPS_WindSpeed_IsbL-0275_RLatLon0.03_PT021H.grib2 2026-04-26 18:09 970K
20260426T12Z_MSC_CAPS_WindSpeed_IsbL-0300_RLatLon0.03_PT021H.grib2 2026-04-26 18:09 1.0M
20260426T12Z_MSC_CAPS_WindSpeed_IsbL-0350_RLatLon0.03_PT021H.grib2 2026-04-26 18:09 1.0M
20260426T12Z_MSC_CAPS_WindSpeed_IsbL-0400_RLatLon0.03_PT021H.grib2 2026-04-26 18:09 1.0M
20260426T12Z_MSC_CAPS_WindSpeed_IsbL-0450_RLatLon0.03_PT021H.grib2 2026-04-26 18:09 1.0M
20260426T12Z_MSC_CAPS_WindSpeed_IsbL-0500_RLatLon0.03_PT021H.grib2 2026-04-26 18:09 1.3M
20260426T12Z_MSC_CAPS_WindSpeed_IsbL-0550_RLatLon0.03_PT021H.grib2 2026-04-26 18:09 1.3M
20260426T12Z_MSC_CAPS_WindSpeed_IsbL-0600_RLatLon0.03_PT021H.grib2 2026-04-26 18:09 1.4M
20260426T12Z_MSC_CAPS_WindSpeed_IsbL-0650_RLatLon0.03_PT021H.grib2 2026-04-26 18:09 1.4M
20260426T12Z_MSC_CAPS_WindSpeed_IsbL-0700_RLatLon0.03_PT021H.grib2 2026-04-26 18:09 1.4M
20260426T12Z_MSC_CAPS_WindSpeed_IsbL-0750_RLatLon0.03_PT021H.grib2 2026-04-26 18:09 1.6M
20260426T12Z_MSC_CAPS_WindSpeed_IsbL-0800_RLatLon0.03_PT021H.grib2 2026-04-26 18:09 1.6M
20260426T12Z_MSC_CAPS_WindSpeed_IsbL-0850_RLatLon0.03_PT021H.grib2 2026-04-26 18:09 1.7M
20260426T12Z_MSC_CAPS_WindSpeed_IsbL-0875_RLatLon0.03_PT021H.grib2 2026-04-26 18:09 1.8M
20260426T12Z_MSC_CAPS_WindSpeed_IsbL-0900_RLatLon0.03_PT021H.grib2 2026-04-26 18:09 1.8M
20260426T12Z_MSC_CAPS_WindSpeed_IsbL-0925_RLatLon0.03_PT021H.grib2 2026-04-26 18:09 1.9M
20260426T12Z_MSC_CAPS_WindSpeed_IsbL-0950_RLatLon0.03_PT021H.grib2 2026-04-26 18:09 1.9M
20260426T12Z_MSC_CAPS_WindSpeed_IsbL-0970_RLatLon0.03_PT021H.grib2 2026-04-26 18:09 2.0M
20260426T12Z_MSC_CAPS_WindSpeed_IsbL-0985_RLatLon0.03_PT021H.grib2 2026-04-26 18:09 2.1M
20260426T12Z_MSC_CAPS_WindSpeed_IsbL-1000_RLatLon0.03_PT021H.grib2 2026-04-26 18:09 2.1M
20260426T12Z_MSC_CAPS_WindSpeed_IsbL-1015_RLatLon0.03_PT021H.grib2 2026-04-26 18:09 2.1M
20260426T12Z_MSC_CAPS_WindU_AGL-10m_RLatLon0.03_PT021H.grib2 2026-04-26 18:09 1.9M
20260426T12Z_MSC_CAPS_WindU_AGL-120m_RLatLon0.03_PT021H.grib2 2026-04-26 18:09 913K
20260426T12Z_MSC_CAPS_WindU_AGL-40m_RLatLon0.03_PT021H.grib2 2026-04-26 18:09 953K
20260426T12Z_MSC_CAPS_WindU_AGL-80m_RLatLon0.03_PT021H.grib2 2026-04-26 18:09 919K
20260426T12Z_MSC_CAPS_WindU_IsbL-0050_RLatLon0.03_PT021H.grib2 2026-04-26 18:09 759K
20260426T12Z_MSC_CAPS_WindU_IsbL-0100_RLatLon0.03_PT021H.grib2 2026-04-26 18:09 790K
20260426T12Z_MSC_CAPS_WindU_IsbL-0150_RLatLon0.03_PT021H.grib2 2026-04-26 18:09 908K
20260426T12Z_MSC_CAPS_WindU_IsbL-0175_RLatLon0.03_PT021H.grib2 2026-04-26 18:09 716K
20260426T12Z_MSC_CAPS_WindU_IsbL-0200_RLatLon0.03_PT021H.grib2 2026-04-26 18:09 863K
20260426T12Z_MSC_CAPS_WindU_IsbL-0225_RLatLon0.03_PT021H.grib2 2026-04-26 18:09 881K
20260426T12Z_MSC_CAPS_WindU_IsbL-0250_RLatLon0.03_PT021H.grib2 2026-04-26 18:09 905K
20260426T12Z_MSC_CAPS_WindU_IsbL-0275_RLatLon0.03_PT021H.grib2 2026-04-26 18:09 913K
20260426T12Z_MSC_CAPS_WindU_IsbL-0300_RLatLon0.03_PT021H.grib2 2026-04-26 18:09 715K
20260426T12Z_MSC_CAPS_WindU_IsbL-0350_RLatLon0.03_PT021H.grib2 2026-04-26 18:09 725K
20260426T12Z_MSC_CAPS_WindU_IsbL-0400_RLatLon0.03_PT021H.grib2 2026-04-26 18:09 727K
20260426T12Z_MSC_CAPS_WindU_IsbL-0450_RLatLon0.03_PT021H.grib2 2026-04-26 18:09 960K
20260426T12Z_MSC_CAPS_WindU_IsbL-0500_RLatLon0.03_PT021H.grib2 2026-04-26 18:09 1.0M
20260426T12Z_MSC_CAPS_WindU_IsbL-0550_RLatLon0.03_PT021H.grib2 2026-04-26 18:09 1.0M
20260426T12Z_MSC_CAPS_WindU_IsbL-0600_RLatLon0.03_PT021H.grib2 2026-04-26 18:09 1.0M
20260426T12Z_MSC_CAPS_WindU_IsbL-0650_RLatLon0.03_PT021H.grib2 2026-04-26 18:09 1.0M
20260426T12Z_MSC_CAPS_WindU_IsbL-0700_RLatLon0.03_PT021H.grib2 2026-04-26 18:09 1.1M
20260426T12Z_MSC_CAPS_WindU_IsbL-0750_RLatLon0.03_PT021H.grib2 2026-04-26 18:09 1.1M
20260426T12Z_MSC_CAPS_WindU_IsbL-0800_RLatLon0.03_PT021H.grib2 2026-04-26 18:09 1.1M
20260426T12Z_MSC_CAPS_WindU_IsbL-0850_RLatLon0.03_PT021H.grib2 2026-04-26 18:09 1.2M
20260426T12Z_MSC_CAPS_WindU_IsbL-0875_RLatLon0.03_PT021H.grib2 2026-04-26 18:09 1.2M
20260426T12Z_MSC_CAPS_WindU_IsbL-0900_RLatLon0.03_PT021H.grib2 2026-04-26 18:09 1.3M
20260426T12Z_MSC_CAPS_WindU_IsbL-0925_RLatLon0.03_PT021H.grib2 2026-04-26 18:09 1.3M
20260426T12Z_MSC_CAPS_WindU_IsbL-0950_RLatLon0.03_PT021H.grib2 2026-04-26 18:09 1.3M
20260426T12Z_MSC_CAPS_WindU_IsbL-0970_RLatLon0.03_PT021H.grib2 2026-04-26 18:09 1.4M
20260426T12Z_MSC_CAPS_WindU_IsbL-0985_RLatLon0.03_PT021H.grib2 2026-04-26 18:09 1.5M
20260426T12Z_MSC_CAPS_WindU_IsbL-1000_RLatLon0.03_PT021H.grib2 2026-04-26 18:09 1.9M
20260426T12Z_MSC_CAPS_WindU_IsbL-1015_RLatLon0.03_PT021H.grib2 2026-04-26 18:09 1.9M
20260426T12Z_MSC_CAPS_WindV_AGL-10m_RLatLon0.03_PT021H.grib2 2026-04-26 18:09 1.9M
20260426T12Z_MSC_CAPS_WindV_AGL-120m_RLatLon0.03_PT021H.grib2 2026-04-26 18:09 909K
20260426T12Z_MSC_CAPS_WindV_AGL-40m_RLatLon0.03_PT021H.grib2 2026-04-26 18:09 955K
20260426T12Z_MSC_CAPS_WindV_AGL-80m_RLatLon0.03_PT021H.grib2 2026-04-26 18:09 920K
20260426T12Z_MSC_CAPS_WindV_IsbL-0050_RLatLon0.03_PT021H.grib2 2026-04-26 18:09 939K
20260426T12Z_MSC_CAPS_WindV_IsbL-0100_RLatLon0.03_PT021H.grib2 2026-04-26 18:09 790K
20260426T12Z_MSC_CAPS_WindV_IsbL-0150_RLatLon0.03_PT021H.grib2 2026-04-26 18:09 1.0M
20260426T12Z_MSC_CAPS_WindV_IsbL-0175_RLatLon0.03_PT021H.grib2 2026-04-26 18:09 714K
20260426T12Z_MSC_CAPS_WindV_IsbL-0200_RLatLon0.03_PT021H.grib2 2026-04-26 18:09 858K
20260426T12Z_MSC_CAPS_WindV_IsbL-0225_RLatLon0.03_PT021H.grib2 2026-04-26 18:09 874K
20260426T12Z_MSC_CAPS_WindV_IsbL-0250_RLatLon0.03_PT021H.grib2 2026-04-26 18:09 896K
20260426T12Z_MSC_CAPS_WindV_IsbL-0275_RLatLon0.03_PT021H.grib2 2026-04-26 18:09 906K
20260426T12Z_MSC_CAPS_WindV_IsbL-0300_RLatLon0.03_PT021H.grib2 2026-04-26 18:09 917K
20260426T12Z_MSC_CAPS_WindV_IsbL-0350_RLatLon0.03_PT021H.grib2 2026-04-26 18:09 930K
20260426T12Z_MSC_CAPS_WindV_IsbL-0400_RLatLon0.03_PT021H.grib2 2026-04-26 18:09 939K
20260426T12Z_MSC_CAPS_WindV_IsbL-0450_RLatLon0.03_PT021H.grib2 2026-04-26 18:09 958K
20260426T12Z_MSC_CAPS_WindV_IsbL-0500_RLatLon0.03_PT021H.grib2 2026-04-26 18:09 866K
20260426T12Z_MSC_CAPS_WindV_IsbL-0550_RLatLon0.03_PT021H.grib2 2026-04-26 18:09 896K
20260426T12Z_MSC_CAPS_WindV_IsbL-0600_RLatLon0.03_PT021H.grib2 2026-04-26 18:09 921K
20260426T12Z_MSC_CAPS_WindV_IsbL-0650_RLatLon0.03_PT021H.grib2 2026-04-26 18:09 951K
20260426T12Z_MSC_CAPS_WindV_IsbL-0700_RLatLon0.03_PT021H.grib2 2026-04-26 18:09 1.0M
20260426T12Z_MSC_CAPS_WindV_IsbL-0750_RLatLon0.03_PT021H.grib2 2026-04-26 18:09 1.0M
20260426T12Z_MSC_CAPS_WindV_IsbL-0800_RLatLon0.03_PT021H.grib2 2026-04-26 18:09 1.1M
20260426T12Z_MSC_CAPS_WindV_IsbL-0850_RLatLon0.03_PT021H.grib2 2026-04-26 18:09 1.2M
20260426T12Z_MSC_CAPS_WindV_IsbL-0875_RLatLon0.03_PT021H.grib2 2026-04-26 18:09 1.2M
20260426T12Z_MSC_CAPS_WindV_IsbL-0900_RLatLon0.03_PT021H.grib2 2026-04-26 18:09 1.3M
20260426T12Z_MSC_CAPS_WindV_IsbL-0925_RLatLon0.03_PT021H.grib2 2026-04-26 18:09 1.3M
20260426T12Z_MSC_CAPS_WindV_IsbL-0950_RLatLon0.03_PT021H.grib2 2026-04-26 18:09 1.3M
20260426T12Z_MSC_CAPS_WindV_IsbL-0970_RLatLon0.03_PT021H.grib2 2026-04-26 18:09 1.4M
20260426T12Z_MSC_CAPS_WindV_IsbL-0985_RLatLon0.03_PT021H.grib2 2026-04-26 18:09 1.5M
20260426T12Z_MSC_CAPS_WindV_IsbL-1000_RLatLon0.03_PT021H.grib2 2026-04-26 18:09 1.9M
20260426T12Z_MSC_CAPS_WindV_IsbL-1015_RLatLon0.03_PT021H.grib2 2026-04-26 18:09 1.9M